SITKA/JAPONSKI_ARPT current weather conditions

sailwx.info

Wind from 090 at 2 knots

Air temperature -1.1° C
Visibility: greater than 8.7 NM
Dewpoint -2.8° C

Last reported at 2017-Jan-20 11:53 UTC.
Time now 2017-Jan-20 14:03 UTC

Location: N 57°04' W 135°21'.
View on Google Maps.

See reports from other nearby stations

  
Tides and Currents Weather Stations Pressure Air Temp Water Temp Dewpoint Dewpoint Depression Visibility Wind Speed Wind Dir Waves Ship Positions
date/time (UTC)wind fromknots sea level pressurealtimeterstation pressurevisibilityair tempwater tempwave heightnotes
2017-Jan-20 11:53 090 2 8.7-1.1
2017-Jan-20 11:00 340 6 8.7 0.6
2017-Jan-20 10:53 330 5 8.7-0.0
2017-Jan-20 10:44 6.9-0.0 Light snow.
2017-Jan-20 10:34 1.7-0.0 Light snow. Mist.
2017-Jan-20 10:19 280 6 1.1 0.6 Light snow. Mist.
2017-Jan-20 10:14 280 8 1.7 0.6 Light snow. Mist.
2017-Jan-20 10:12 280 9 2.6 0.6 Light snow. Mist.
2017-Jan-20 09:53 080 5 8.7-0.6
2017-Jan-20 09:04 100 6 8.7-0.6
2017-Jan-20 08:53 080 5 8.7-0.6 Light ice pellets.
2017-Jan-20 08:28 100 5 8.7-0.0 Light ice pellets.
2017-Jan-20 08:14 090 2 8.7 0.6 Light ice pellets.
2017-Jan-20 07:53 4.3 0.6 Light snow. Ice pellets.
2017-Jan-20 07:44 120 4 8.7 0.6 Light snow. Ice pellets.
2017-Jan-20 07:07 080 6 8.7-0.0 Light ice pellets.
2017-Jan-20 07:00 100 8 6.9 0.6 Light snow. Ice pellets.
2017-Jan-20 06:53 100 8 2.6 0.6 Light snow.
2017-Jan-20 05:53 100 9 7.8-0.0
2017-Jan-20 04:53 100 7 7.8 0.6
2017-Jan-20 03:53 240 6 8.7 1.7
2017-Jan-20 03:43 270 6 8.7 1.7 Light snow.
2017-Jan-20 03:37 260 7 6.9 1.7 Light ice pellets. Rain.
2017-Jan-20 03:32 270 6 2.2 1.1 Light snow. Ice pellets.
2017-Jan-20 03:26 270 7 2.2 1.1 Light snow. Ice pellets.
2017-Jan-20 02:53 270 4 8.7 2.2
2017-Jan-20 01:53 250 12 gusting 15 8.7 2.2
2017-Jan-20 00:53 8.7 2.2
2017-Jan-19 23:53 280 8 8.7 2.8
2017-Jan-19 22:53 270 6 8.7 3.3
2017-Jan-19 21:53 8.7 3.3
2017-Jan-19 20:53 080 4 8.7 2.2
2017-Jan-19 19:53 090 4 8.7 2.8
2017-Jan-19 18:53 100 6 8.7 2.2
2017-Jan-19 17:53 090 4 8.7 2.2
2017-Jan-19 16:53 8.7 3.3
2017-Jan-19 15:53 090 5 8.7 2.2
2017-Jan-19 14:53 050 2 8.7 2.8
2017-Jan-19 14:25 310 5 8.7 2.8 Light rain.
2017-Jan-19 14:06 360 4 7.8 3.3 Light rain.
2017-Jan-19 13:53 8.7 3.3
2017-Jan-19 12:40 290 11 8.7 3.3
2017-Jan-19 11:53 290 13 7.8 3.3 Light rain.
2017-Jan-19 10:53 280 13 8.7 3.9
2017-Jan-19 10:46 280 14 8.7 3.9
2017-Jan-19 10:37 290 14 8.7 3.9
2017-Jan-19 10:04 300 19 6.1 3.9 Light rain.
2017-Jan-19 09:53 270 15 gusting 21 3.5 3.3 Heavy rain.
2017-Jan-19 09:26 180 11 gusting 13 8.7 6.7
2017-Jan-19 08:53 120 12 8.7 6.7
2017-Jan-19 07:53 120 13 8.7 7.2
2017-Jan-19 06:53 130 13 8.7 7.8 Light rain.
2017-Jan-19 05:53 8.7 5.0
2017-Jan-19 04:53 340 2 8.7 5.0
2017-Jan-19 03:53 8.7 5.6
2017-Jan-19 02:53 8.7 5.6
2017-Jan-19 01:53 320 4 8.7 5.6
2017-Jan-19 00:53 130 8 8.7 7.2
2017-Jan-18 23:53 120 9 8.7 7.2
2017-Jan-18 22:53 100 11 gusting 15 8.7 7.2
2017-Jan-18 21:53 030 4 8.7 5.6
2017-Jan-18 20:53 8.7 5.6 Light rain.
2017-Jan-18 19:53 350 5 8.7 5.6 Light rain.
2017-Jan-18 18:53 330 6 8.7 5.6 Light rain.
2017-Jan-18 17:53 350 4 8.7 5.6 Light rain.
2017-Jan-18 16:53 010 4 8.7 5.0 Light rain.
2017-Jan-18 15:53 020 4 8.7 5.0 Light rain.
2017-Jan-18 14:53 350 2 8.7 5.0